Location: Azul
(36.7830°S, 59.8500°W)
Time: 18:26:54
(UTC-03:00)

AIST 2D - Pass Details

Date: 25 October 2021
Orbit: 445 x 462 km, 97.1° (Epoch: 06 December)

Event Time Altitude Azimuth Distance (km) Brightness Sun altitude
Exits shadow 22:17:30 16° 192° (SSW) 1,283 ? -30.0°
Drops below altitude 10° 22:18:16 10° 192° (SSW) 1,605 ? -30.1°
Sets 22:20:19 0° 191° (S) 2,486 ? -30.4°
